Location: Casper
(42.8670°N, 106.3130°W)
Time: 12:05:08
(UTC-06:00)

Daily predictions for brighter satellites

Satellite Brightness Start Highest point End
(mag) Time Altitude Azimuth Time Altitude Azimuth Time Altitude Azimuth
Cosmos 2237 Rocket 4.4 20:59:16 10° WSW 21:04:17 32° NW 21:09:19 10° N
ERS-1 Rocket 3.0 20:59:39 10° SSE 21:04:39 76° ENE 21:09:41 10° N
CZ-2C R/B 0.6 21:07:07 10° S 21:09:24 73° W 21:11:42 10° NNW
ALOS 3.1 21:04:54 10° S 21:09:27 53° W 21:14:03 10° NNW
APEX 4.0 21:06:32 10° NNW 21:10:38 68° WSW 21:15:59 10° SSE
Cosmos 2278 Rocket 4.5 21:07:04 10° NW 21:11:20 22° W 21:15:34 10° SSW
USA 234 4.0 21:05:38 10° E 21:11:50 46° NNE 21:18:02 10° NW
Envisat 3.4 21:09:36 10° SE 21:14:29 50° ENE 21:19:24 10° N
Timation 1 Rocket 4.4 21:08:31 10° NNW 21:14:34 88° WSW 21:20:34 10° SSE
SPOT 5 3.2 21:14:10 10° SE 21:18:18 42° ENE 21:22:24 10° N
CZ-4 SHROUD 3.9 21:16:54 10° SE 21:19:52 39° ENE 21:22:51 10° N
Cosmos 1666 3.0 21:17:04 10° NNW 21:20:58 73° W 21:24:50 10° S
Cosmos 2369 Rocket 3.1 21:18:28 10° N 21:23:40 35° ENE 21:28:41 11° ESE
Cosmos 1461 3.6 21:25:27 10° NW 21:29:37 50° WSW 21:33:33 10° SSE
Terra 4.0 21:28:45 10° E 21:30:33 12° ENE 21:32:21 10° NE
USA 186 4.3 21:31:38 10° SW 21:33:18 15° W 21:34:54 10° WNW
SL-16 R/B 3.8 21:28:16 10° SW 21:33:33 40° WNW 21:38:53 10° NNE
PSLV R/B 3.2 21:34:24 12° SSE 21:37:11 65° ENE 21:40:17 10° N
Atlas Centaur 2 3.7 21:39:42 10° SW 21:46:06 32° S 21:52:19 13° ESE
Cosmos 1992 Rocket 4.1 21:43:36 10° NNW 21:48:50 69° ENE 21:53:01 16° SSE
Cosmos 1515 3.7 21:48:52 10° S 21:52:41 65° E 21:56:31 10° NNE
YAOGAN 6 3.0 21:51:39 18° SE 21:54:11 52° ENE 21:57:51 10° N
Cosmos 1939 Rocket 3.8 21:52:20 10° S 21:56:21 47° W 22:00:22 10° NNW
Cosmos 1953 4.3 21:59:25 10° NE 22:01:46 15° ENE 22:03:10 13° E
Lacrosse 5 rocket 4.3 21:59:20 10° WNW 22:01:56 16° NNW 22:04:37 10° NNE
Cosmos 1603 4.4 21:57:08 10° SW 22:02:39 57° WNW 22:08:11 10° NNE
Cosmos 1825 Rocket 3.6 21:59:19 13° S 22:03:11 62° E 22:07:34 10° NNE
Cosmos 1066 Rocket 4.3 21:58:06 10° S 22:03:42 62° E 22:09:26 10° NNE
SeaSat 1 2.6 22:01:18 17° SSE 22:05:11 75° WSW 22:10:09 10° NNW
Tsikada Rocket 4.5 21:59:06 10° SSW 22:05:27 65° W 22:11:48 10° N
Cosmos 1812 Rocket 4.4 22:04:33 10° NNW 22:08:48 49° W 22:13:03 10° SSW
H-2A R/B 3.1 22:07:09 18° ESE 22:09:56 30° ENE 22:14:20 10° N
Cosmos 1190 Rocket 4.0 22:06:31 10° S 22:11:45 64° ESE 22:17:01 10° NNE
CZ-4B R/B 3.5 22:10:29 10° NNE 22:15:36 87° E 22:20:49 10° SSW
Kosmos-1675 4.2 22:16:42 28° SE 22:17:47 34° ESE 22:24:56 10° NE
SPOT 1/Viking Rocket 3.5 22:14:58 19° SSE 22:18:41 89° WSW 22:23:52 10° NNW
COSMOS 2455 3.3 22:12:46 10° SW 22:18:43 65° WNW 22:24:43 10° NNE
Cosmos 1346 Rocket 2.7 22:17:12 23° S 22:19:29 66° E 22:23:24 10° NNE
MetOp-A 4.5 22:15:59 14° S 22:20:31 63° WSW 22:25:52 10° NNW
H-2A R/B 4.4 22:18:47 10° SW 22:21:54 20° W 22:25:06 10° NW
Cosmos 1943 Rocket 2.9 22:19:18 10° NNW 22:24:35 42° ENE 22:27:40 23° ESE
Cosmos 1943 3.2 22:19:14 10° SSW 22:24:55 88° WNW 22:30:39 10° NNE
Cosmos 676 Rocket 4.2 22:25:07 20° S 22:28:38 54° ESE 22:33:49 10° NNE
Cosmos 1842 3.9 22:29:51 33° SE 22:30:44 38° E 22:34:24 10° NNE
ISS -2.2 22:29:01 10° WSW 22:32:11 46° NNW 22:35:21 10° NE
USA 245 4.4 22:28:32 18° S 22:32:57 68° WSW 22:37:58 10° NNW
SL-08 RB Rocket 3.6 22:31:30 29° SSE 22:33:52 87° ENE 22:38:24 10° NNW
IGS 5A 4.2 22:34:47 30° ESE 22:36:08 39° ENE 22:40:01 10° N
Cosmos 1634 Rocket 4.3 22:34:20 10° NNW 22:40:27 64° W 22:45:07 18° S
ATLAS 3B R/B 2.9 22:33:29 10° SSW 22:41:13 88° SE 22:48:47 10° NE
PSLV R/B 3.3 22:37:55 10° W 22:41:27 66° S 22:42:06 52° SE
Cosmos 2084 4.3 22:37:43 10° NNW 22:41:37 40° NE 22:43:23 27° E
Meteor 1-21 4.2 22:38:03 22° S 22:41:55 76° E 22:47:45 10° NNE
Lacrosse 4 Rocket 1.5 22:42:40 10° SW 22:46:42 72° WNW 22:50:49 10° NNE
CZ-4 R/B 4.2 22:42:22 10° N 22:47:20 68° WNW 22:51:37 14° SSW
Cosmos 1758 3.8 22:44:34 10° N 22:48:34 46° ENE 22:49:26 39° ESE
Cosmos 1953 Rocket 4.1 22:46:45 17° SSW 22:49:58 55° W 22:54:21 10° N
Landsat 7 3.8 22:49:43 35° S 22:51:46 86° WSW 22:56:34 10° NNW
Cosmos 1766 3.4 22:48:50 10° NNW 22:52:50 73° W 22:54:08 41° S
SL-27 R/B 2.7 22:54:14 47° E 22:54:14 47° E 22:57:08 10° NNE
USA 234 3.4 22:51:11 29° SSE 22:54:40 65° SW 23:01:12 10° NW
CZ-4C R/B 4.1 22:58:46 13° E 22:58:46 13° E 23:00:24 10° ENE
SL-24 R/B 4.4 22:52:39 10° N 22:57:38 86° E 23:00:07 32° S
Spot 4 3.9 22:56:14 39° SE 22:57:50 63° ENE 23:02:34 10° N
Cosmos 407 Rocket 3.9 22:53:21 10° SSW 22:58:34 64° WNW 23:03:45 10° NNE
ARGOS 3.8 22:55:57 23° SSW 22:59:11 50° W 23:04:28 10° NNW
Cosmos-2242 3.0 22:56:10 10° N 23:00:36 84° E 23:01:49 48° SSE
Cosmos 2279 Rocket 4.1 22:56:18 10° NNW 23:02:33 74° W 23:06:00 28° S
Terra 1.8 23:06:00 43° S 23:07:35 85° WSW 23:12:22 10° NNW
Cosmos 2369 Rocket 3.3 23:02:34 10° NW 23:07:40 35° WSW 23:10:29 22° SSW
Cosmos 1932 4.3 23:07:31 17° SSW 23:12:21 79° ESE 23:18:37 10° NE
Cosmos 1607 4.1 23:13:26 38° SSE 23:15:19 50° ESE 23:21:18 10° NE
CZ-4B R/B 4.2 23:17:49 10° ENE 23:18:14 10° ENE 23:18:54 10° NE
Cosmos 1954 Rocket 4.2 23:15:21 24° SSW 23:18:35 73° WNW 23:23:54 10° NNE
Cosmos 2208 Rocket 4.0 23:14:40 10° NNW 23:19:51 72° ENE 23:21:15 48° SE
Cosmos 1470 3.6 23:17:01 10° N 23:20:37 36° ENE 23:20:37 36° ENE
Okean 3 Rocket 4.4 23:21:12 35° E 23:21:12 35° E 23:25:09 10° NNE
USA 238 DEB 3.7 23:16:02 19° SSW 23:21:16 73° ESE 23:28:20 10° NE
USA 238 3.7 23:16:14 20° SSW 23:21:23 72° ESE 23:28:26 10° NE
Cosmos 1805 3.2 23:20:04 10° N 23:24:02 77° W 23:24:22 70° SSW
Cosmos 1340 3.8 23:26:13 33° ENE 23:26:13 33° ENE 23:29:02 10° NNE
CARTOSAT-1 4.2 23:25:28 40° SW 23:26:29 48° W 23:30:41 10° NNW
Atlas Centaur 2 3.7 23:28:11 10° WSW 23:34:58 31° S 23:34:58 31° S
Cosmos 1953 3.1 23:34:42 10° NNW 23:38:27 41° W 23:38:56 39° WSW
Cosmos 1741 Rocket 3.9 23:37:15 50° S 23:38:40 84° ESE 23:44:01 10° NNE
COSMOS 2406 3.2 23:39:42 35° SSW 23:42:14 81° WNW 23:48:00 10° NNE
Cosmos 1544 3.2 23:38:59 10° N 23:42:29 76° NNW 23:42:29 76° NNW
ALOS 2 4.0 23:44:29 26° E 23:45:01 27° ENE 23:48:43 10° N
H-2A R/B 3.1 23:47:47 27° SW 23:49:16 33° W 23:53:49 10° NNW
Cosmos 1842 Rocket 4.0 23:49:31 10° NNW 23:53:46 50° W 23:54:12 48° WSW
